Regional Weather Roundup
Issued by NWS

Home | Current Version | Previous Version | Text Only | Print | Product List | Glossary Off
Versions: 1 2 3 4 5 6 7 8 9 10 11 12 13 14 15 16 17 18 19 20 21 22 23 24 25 26 27 28 29 30 31 32 33 34 35 36 37 38 39 40 41 42 43 44 45 46 47 48 49 50

083
ASUS44 KLIX 301910
RWRLA
LOUISIANA WEATHER ROUNDUP
NATIONAL WEATHER SERVICE NEW ORLEANS LA
200 PM CDT TUE SEP 30 2014

NOTE: "FAIR" INDICATES FEW OR NO CLOUDS BELOW 12,000 FEET WITH NO
      SIGNIFICANT WEATHER AND/OR OBSTRUCTIONS TO VISIBILITY.
      SKY/WX - SKY CONDITION AND SIGNIFICANT WEATHER.
      TMP - AIR TEMPERATURE.    DP   - DEWPOINT TEMPERATURE.
      RH  - RELATIVE HUMIDITY.  PRES - PRESSURE.
      HX  - HEAT INDEX.         WCI  - WIND CHILL INDEX.

*  THESE STATIONS ARE NOT NWS OR FAA STATIONS AND ARE NOT UNDER
   NWS QUALITY CONTROL.

LAZ040-048-061>063-065-066-069-302000-
SOUTHEAST LOUISIANA

CITY           SKY/WX    TMP DP  RH WIND       PRES   REMARKS
N.O. AUDUBON     N/A     89  72  57 MISG        N/A  HX  96
N.O. INTL ARPT MOSUNNY   86  70  58 NE12      29.86F
N.O. LAKEFRONT MOSUNNY   85  70  60 E8        29.87F
N.O. DOWNTOWN* FAIR      86  66  51 NE6       29.87F
SLIDELL        MOSUNNY   85  69  58 CALM      29.86F
BATON ROUGE    PTSUNNY   89  68  49 VRB3      29.86F
BOOTHVILLE     MOSUNNY   81  75  82 NE10      29.88F
BELLE CHASSE   PTSUNNY   87  71  58 NE10      29.86F
BOGALUSA*      MOCLDY    86  69  56 NE6       29.89F
GALLIANO*      NOT AVBL
NEW ROADS*     MOCLDY    87  70  55 E6        29.86F
GONZALES*      FAIR      85  73  66 E5        29.86F
HAMMOND*       MOSUNNY   91  66  43 NE7       29.88F
HOUMA*         PTSUNNY  N/A N/A N/A SE6       29.86F
PORT FOURCHON* CLEAR     84  73  70 E8        29.90F

$$

LAZ041-044-053-054-302000-
SOUTHWEST LOUISIANA

CITY           SKY/WX    TMP DP  RH WIND       PRES   REMARKS
LAKE CHARLES   MOSUNNY   87  70  56 CALM      29.84F
LAFAYETTE      MOSUNNY   89  70  53 S5        29.86F
PATTERSON      CLOUDY    86  73  66 E5        29.89F
SALT POINT       N/A     89  75  63 VRB5      29.85F HX  99
NEW IBERIA     CLOUDY    88  72  58 E7        29.86F
CHENAULT AIRPK NOT AVBL

$$

LAZ027-028-302000-
CENTRAL LOUISIANA

CITY           SKY/WX    TMP DP  RH WIND       PRES   REMARKS
FORT POLK      MOSUNNY   88  70  56 S9        29.85F
ALEXANDRIA INT PTSUNNY   88  68  51 SE6       29.84F
ALEXANDRIA     MOSUNNY   90  68  48 CALM      29.86F

$$

LAZ001-002-302000-
NORTHWEST LOUISIANA

CITY           SKY/WX    TMP DP  RH WIND       PRES   REMARKS
SHREVEPORT     PTSUNNY   89  66  46 E9        29.84F
BARKSDALE AFB  SUNNY     91  64  40 SE9       29.85F
DTN SHREVEPORT SUNNY     88  64  44 SE6       29.85F

$$

LAZ014-016-302000-
NORTHEAST LOUISIANA

CITY           SKY/WX    TMP DP  RH WIND       PRES   REMARKS
MONROE         SUNNY     89  65  44 CALM      29.88F
TALLULAH       PTSUNNY   87  63  44 E3        29.88F

$$




USA.gov is the U.S. government's official web portal to all federal, state and local government web resources and services.